"Pseudo-MPEC" for ZTF097V

Created 2019 Nov 13 9:07:18 UT using Find_Orb

Click here for an explanation of pseudo-MPECs

 
 Astrometry: 
     ZTF097V  C2019 11 01.31453703 31 11.25 +30 05 52.9    ~B2C7 18.15RUNEOCPI41
     ZTF097V  C2019 11 01.31488403 31 13.14 +30 05 48.9    ~B2C7 18.15RUNEOCPI41
     ZTF097V  C2019 11 01.38672503 37 32.61 +29 50 34.4    ~B2C7 18.19RUNEOCPI41
     ZTF097V  C2019 11 01.38707203 37 34.38 +29 50 29.5    ~B2C7 18.19RUNEOCPI41
     ZTF097V  C2019 11 01.39510403 38 14.63 +29 48 42.5    ~B2C7 18.25RUNEOCPI41
     ZTF097V  C2019 11 01.39545103 38 16.35 +29 48 37.8    ~B2C7 18.25RUNEOCPI41
     ZTF097V  C2019 11 01.40067103 38 42.11 +29 47 29.5    ~B2C7 18.54RUNEOCPI41
     ZTF097V  C2019 11 01.40101803 38 43.84 +29 47 25.0    ~B2C7 18.54RUNEOCPI41

Station data:
(I41) Palomar Mountain--ZTF  (N33.357340 W116.859780)  US/California. 1.2-m
   f/2.44 Oschin Schmidt + CCD.

Orbital elements:  ZTF097V
   Perihelion 2019 Oct 12.798993 +/- 0.304 TT = 19:10:33 (JD 2458769.298993)
Epoch 2019 Nov  1.0 TT = JDT 2458788.5   Earth MOID: 0.0021   Ju: 0.1314
M   2.73443176 +/- 0.9              Ma: 0.0528                AutoNEOCP
n   0.14241085 +/- 0.0489           Peri.  145.49607 +/- 1.3
a   3.63167790 +/- 0.831            Node   226.70536 +/- 0.8
e   0.7365057 +/- 0.0609            Incl.    0.64245 +/- 0.07
P   6.92                   H 27.9   G  0.15   U 10.7  
q 0.95692626 +/- 0.00318    Q 6.30642954 +/- 1.98
From 8 observations 2019 Nov. 1 (2.1 hr); mean residual 0".51
Residuals in arcseconds: 
191101 I41  .26+  .13-    191101 I41  .22-  .15+    191101 I41  .61-  .34+    
191101 I41  .25-  .12+    191101 I41  .93+  .66-    191101 I41  .40-  .46+    
191101 I41  .56-  .47+    191101 I41  .85+  .75-    

Ephemerides (geocentric):
Date (UTC) HH   RA              Dec         delta   r     elong  mag " sig PA
---- -- -- --  -------------   -----------  ------ ------ -----  --- ---- ---
2019 11 13 09  05 24 47.478   +22 21 41.79  .08843 1.0661 148.5 24.0  248  94
2019 11 13 10  05 24 48.620   +22 21 28.93  .08872 1.0663 148.6 24.0  248  94
2019 11 13 11  05 24 49.745   +22 21 16.14  .08900 1.0666 148.6 24.0  247  94
2019 11 13 12  05 24 50.854   +22 21 03.43  .08928 1.0669 148.6 24.1  247  94
2019 11 13 13  05 24 51.948   +22 20 50.79  .08957 1.0671 148.7 24.1  247  94
2019 11 13 14  05 24 53.025   +22 20 38.23  .08985 1.0674 148.7 24.1  247  94
2019 11 13 15  05 24 54.086   +22 20 25.74  .09013 1.0677 148.8 24.1  247  94
2019 11 13 16  05 24 55.132   +22 20 13.33  .09042 1.0679 148.8 24.1  247  94
2019 11 13 17  05 24 56.162   +22 20 00.99  .09070 1.0682 148.8 24.1  247  94
2019 11 13 18  05 24 57.177   +22 19 48.72  .09098 1.0685 148.9 24.1  247  94
2019 11 13 19  05 24 58.176   +22 19 36.53  .09127 1.0687 148.9 24.1  247  94
2019 11 13 20  05 24 59.161   +22 19 24.40  .09155 1.0690 149.0 24.1  247  93
2019 11 13 21  05 25 00.130   +22 19 12.35  .09183 1.0693 149.0 24.1  247  93
2019 11 13 22  05 25 01.084   +22 19 00.36  .09212 1.0695 149.0 24.1  247  93
2019 11 13 23  05 25 02.024   +22 18 48.44  .09240 1.0698 149.1 24.1  247  93
2019 11 14 00  05 25 02.948   +22 18 36.60  .09268 1.0701 149.1 24.1  247  93
2019 11 14 01  05 25 03.859   +22 18 24.82  .09297 1.0704 149.1 24.1  247  93
2019 11 14 02  05 25 04.754   +22 18 13.10  .09325 1.0706 149.2 24.1  247  93
2019 11 14 03  05 25 05.636   +22 18 01.46  .09354 1.0709 149.2 24.1  247  93
2019 11 14 04  05 25 06.503   +22 17 49.88  .09382 1.0712 149.3 24.1  247  93
2019 11 14 05  05 25 07.356   +22 17 38.36  .09410 1.0714 149.3 24.2  246  93
2019 11 14 06  05 25 08.194   +22 17 26.92  .09439 1.0717 149.3 24.2  246  93
2019 11 14 07  05 25 09.019   +22 17 15.53  .09467 1.0720 149.4 24.2  246  93
2019 11 14 08  05 25 09.830   +22 17 04.21  .09496 1.0722 149.4 24.2  246  93
2019 11 14 09  05 25 10.628   +22 16 52.95  .09524 1.0725 149.5 24.2  246  93
2019 11 14 10  05 25 11.411   +22 16 41.76  .09552 1.0728 149.5 24.2  246  93
2019 11 14 11  05 25 12.182   +22 16 30.63  .09581 1.0731 149.5 24.2  246  93
2019 11 14 12  05 25 12.938   +22 16 19.56  .09609 1.0733 149.6 24.2  246  93
2019 11 14 13  05 25 13.682   +22 16 08.55  .09638 1.0736 149.6 24.2  246  93
2019 11 14 14  05 25 14.412   +22 15 57.60  .09666 1.0739 149.7 24.2  246  93
2019 11 14 15  05 25 15.129   +22 15 46.71  .09695 1.0742 149.7 24.2  246  93
2019 11 14 16  05 25 15.833   +22 15 35.88  .09723 1.0744 149.7 24.2  246  93
2019 11 14 17  05 25 16.524   +22 15 25.11  .09752 1.0747 149.8 24.2  246  93
2019 11 14 18  05 25 17.203   +22 15 14.40  .09780 1.0750 149.8 24.2  245  93
2019 11 14 19  05 25 17.868   +22 15 03.75  .09808 1.0753 149.8 24.2  245  93
2019 11 14 20  05 25 18.521   +22 14 53.16  .09837 1.0755 149.9 24.2  245  93
2019 11 14 21  05 25 19.161   +22 14 42.62  .09865 1.0758 149.9 24.2  245  93
2019 11 14 22  05 25 19.789   +22 14 32.14  .09894 1.0761 150.0 24.2  245  93
2019 11 14 23  05 25 20.404   +22 14 21.72  .09922 1.0764 150.0 24.3  245  93
2019 11 15 00  05 25 21.008   +22 14 11.35  .09951 1.0766 150.0 24.3  245  93
2019 11 15 01  05 25 21.599   +22 14 01.04  .09979 1.0769 150.1 24.3  245  93
2019 11 15 02  05 25 22.177   +22 13 50.78  .10008 1.0772 150.1 24.3  245  93
2019 11 15 03  05 25 22.744   +22 13 40.57  .10037 1.0775 150.2 24.3  245  93
2019 11 15 04  05 25 23.299   +22 13 30.43  .10065 1.0777 150.2 24.3  245  93
2019 11 15 05  05 25 23.842   +22 13 20.33  .10094 1.0780 150.2 24.3  245  93
2019 11 15 06  05 25 24.373   +22 13 10.29  .10122 1.0783 150.3 24.3  244  93
2019 11 15 07  05 25 24.892   +22 13 00.30  .10151 1.0786 150.3 24.3  244  93
2019 11 15 08  05 25 25.400   +22 12 50.36  .10179 1.0788 150.4 24.3  244  93